Regional Weather Roundup
Issued by NWS Goodland, KS

Home | Current Version | Previous Version | Text Only | Print | Product List | Glossary Off
Versions: 1 2 3 4 5 6 7 8 9 10 11 12 13 14 15 16 17 18 19 20 21 22 23 24 25 26 27 28 29 30 31 32 33 34 35 36 37 38 39 40 41 42 43 44 45 46 47 48 49 50

000
ASUS43 KGLD 271959
RWRGLD

GOODLAND FORECAST AREA HOURLY WEATHER ROUNDUP
NATIONAL WEATHER SERVICE GOODLAND KS
200 PM MDT MON APR 27 2015

...OFFICIAL OBSERVATIONS...

CITY           SKY/WX    TMP DP  RH WIND       PRES   REMARKS
GOODLAND KS    MOSUNNY   58  33  39 NE23      30.20F
HILL CITY KS   PTSUNNY   60  32  34 NE23G32   30.16F
IMPERIAL NEB   PTSUNNY   59  31  34 NE14      30.22F
MCCOOK NEB     PTSUNNY   64  33  31 NE16G24   30.19F
AKRON CO       CLOUDY    51  36  56 VRB7      30.25S
BURLINGTON CO  MOSUNNY   53  34  48 NE18G24   30.20F
LIMON CO       CLOUDY    47  35  63 N18       30.24S
$$

...UNOFFICIAL OBSERVATIONS...

CITY           SKY/WX    TMP DP  RH WIND       PRES   REMARKS
COLBY KS       SUNNY     59  36  41 N20G26    30.19S
GOVE KS          N/A     58  32  37 MISG        N/A
LENORA KS        N/A     60  32  34 MISG        N/A
NORTON KS      SUNNY     61  27  27 NE14G25   30.17S
SHARON SPRINGS   N/A     57  40  54 N20G28      N/A
TRIBUNE KS     PTSUNNY   54  39  58 N20G29    30.17S
KIT CARSON CO    N/A     53  35  51 MISG        N/A
YUMA CO          N/A     54  36  51 N10G17      N/A
$$


USA.gov is the U.S. government's official web portal to all federal, state and local government web resources and services.